• Join FlightAware (Why Join?)
  • Login
  • US Flag GB Flag 
17:15 EDT


 

Airport Tracker/Info


-or-


 

Live Flight TrackerFlight Track Log ✈ AWI3778 ✈ 18-Aug-2013 ✈ KBTV - KPHL

Flight Track Log - Related Links

Times and Time Zones

All times are in EDT time to prevent confusion due to time zone crossing. See the AWI3778 flight status page for this flight to view local times or setup timezone preferences in your user account.

Time Position Orientation Groundspeed Altitude Reporting Facility
EDT Latitude Longitude Course Direction KTS MPH feet Rate Location/Type
13:25 44.2261 -73.2362 196° South  Level FlightAware Approximate
13:26 44.1462 -73.2682 196° South  Level FlightAware Approximate
13:26 44.2547 -73.1878 194° South 284 327 6,000  Level Boston Center
13:27 44.0663 -73.3001 196° South  Level FlightAware Approximate
13:27 44.1794 -73.2158 195° South 278 320 7,200  Level Boston Center
13:28 43.9864 -73.3322 196° South  Level FlightAware Approximate
13:28 44.1044 -73.2439 195° South 278 320 9,300  Level Boston Center
13:29 43.9065 -73.3641 196° South  Level FlightAware Approximate
13:29 44.0292 -73.2775 198° South 283 326 11,200  Level Boston Center
13:30 43.8262 -73.3940 195° South  Level FlightAware Approximate
13:30 43.9536 -73.3369 210° Southwest 294 338 13,000  Level Boston Center
13:31 43.8844 -73.4022 214° Southwest 315 362 14,800 1,680 Climbing Boston Center
13:32 43.8150 -73.4672 214° Southwest 327 376 16,400 1,440 Climbing Boston Center
13:33 43.7392 -73.5406 215° Southwest 338 389 17,800 1,260 Climbing Boston Center
13:34 43.6553 -73.6139 212° Southwest 338 389 19,000 1,200 Climbing Boston Center
13:35 43.5772 -73.6897 215° Southwest 338 389 20,300 1,500 Climbing Boston Center
13:36 43.4994 -73.7625 214° Southwest 343 395 22,000 840 Climbing Boston Center
13:37 43.4194 -73.8350 213° Southwest 343 395 22,000  Level Boston Center
13:38 43.3475 -73.9019 214° Southwest 348 400 22,000  Level Boston Center
13:39 43.2653 -73.9742 213° Southwest 354 407 22,000  Level Boston Center
13:40 43.1703 -74.0656 215° Southwest 354 407 22,000  Level Boston Center
13:41 43.0881 -74.1431 215° Southwest 354 407 22,000  Level Boston Center
13:42 43.0056 -74.2147 212° Southwest 354 407 22,000  Level Boston Center
13:43 42.9231 -74.2917 214° Southwest 359 413 22,000  Level Boston Center
13:44 42.8406 -74.3683 214° Southwest 359 413 22,000  Level Boston Center
13:45 42.7558 -74.4422 213° Southwest 359 413 22,000  Level Boston Center
13:46 42.6753 -74.5158 214° Southwest 359 413 22,000  Level Boston Center
13:47 42.5928 -74.5892 213° Southwest 359 413 22,000  Level Boston Center
13:48 42.5078 -74.6650 213° Southwest 364 419 22,000  Level Boston Center
13:49 42.4250 -74.7408 214° Southwest 364 419 22,000  Level Boston Center
13:50 42.3422 -74.8136 213° Southwest 364 419 22,000  Level Boston Center
13:52 42.2042 -74.9364 213° Southwest 357 411 22,000 -420 Level New York Center
13:53 42.1142 -75.0119 212° Southwest 357 411 20,900 -1,200 Descending New York Center
13:54 42.0325 -75.0792 211° Southwest 357 411 19,700 -960 Descending New York Center
13:55 41.9489 -75.1492 212° Southwest 351 404 19,000 -360 Descending New York Center
13:56 41.8694 -75.2133 211° Southwest 346 398 19,000 -60 Level New York Center
13:57 41.8008 -75.2672 210° Southwest 346 398 18,900 -660 Descending New York Center
13:58 41.7211 -75.3342 212° Southwest 346 398 17,700 -1,560 Descending New York Center
13:59 41.6308 -75.4056 211° Southwest 346 398 15,800 -1,800 Descending New York Center
14:00 41.5536 -75.4669 211° Southwest 346 398 14,100 -1,680 Descending New York Center
14:01 41.4803 -75.5281 212° Southwest 334 384 12,500 -1,080 Descending New York Center
14:02 41.4114 -75.5814 210° Southwest 327 376 12,000 -300 Descending New York Center
14:03 41.3256 -75.6469 210° Southwest 327 376 12,000 -540 Level New York Center
14:04 41.2508 -75.6886 203° Southwest 326 375 11,000 -1,020 Descending New York Center
14:05 41.1511 -75.6867 179° South 319 367 10,000 -540 Descending New York Center
14:06 41.0558 -75.6689 172° South 333 383 10,000  Level New York Center
14:07 40.9656 -75.6350 164° South 339 390 10,000  Level New York Center
14:08 40.8756 -75.5983 163° South 344 396 10,000  Level New York Center
14:09 40.7831 -75.5617 163° South 344 396 10,000  Level New York Center
14:10 40.7011 -75.5286 163° South 349 402 10,000  Level New York Center
14:11 40.6128 -75.4950 164° South 338 389 10,000  Level New York Center
14:12 40.5350 -75.4650 164° South 319 367 10,000  Level New York Center
14:13 40.4589 -75.4353 163° South 293 337 10,000 -60 Level New York Center
14:14 40.3814 -75.3975 160° South 293 337 9,900 -1,200 Descending New York Center
14:15 40.2950 -75.4161 189° South 288 331 7,700 -1,500 Descending New York Center
14:16 40.2194 -75.4328 190° South 288 331 7,000 -300 Descending New York Center
14:17 40.1414 -75.4547 192° South 288 331 7,100  Climbing New York Center
14:18 40.0719 -75.4692 189° South 288 331 7,100 -240 Level New York Center
14:19 40.0025 -75.4861 191° South 252 290 6,700 -540 Descending New York Center
14:20 39.9500 -75.4986 190° South 224 258 6,100 -300 Descending New York Center
14:21 39.8983 -75.5386 211° Southwest 210 242 6,100 -300 Level New York Center
14:22 39.8731 -75.5964 240° Southwest 201 231 5,600 -1,020 Descending New York Center
14:23 39.8167 -75.5833 170° South 209 241 4,200 -1,380 Descending Philadelphia TRACON
14:24 39.8167 -75.5167 90° East 171 197 3,100 -660 Descending Philadelphia TRACON
14:25 39.8167 -75.4667 90° East 165 190 2,900 -600 Descending Philadelphia TRACON
14:26 39.8333 -75.4000 72° East 167 192 2,000 -840 Descending Philadelphia TRACON
14:27 39.8500 -75.3500 67° East 138 159 1,300 -780 Descending Philadelphia TRACON
14:27 39.8500 -75.3167 90° East 137 158 600 -780 Descending Philadelphia TRACON